[Iaude] MPEC A123: 2024 AA3 [a=1.81,e=0.49,i=5.0,H=25.9]
    mpec at marsden.cfa.harvard.edu 
    mpec at marsden.cfa.harvard.edu
       
    Thu Jan 11 01:58:08 EST 2024
    
    
  
M.P.E.C. 2024-A123                             Issued 2024 January 11, 06:56 UT
     The Minor Planet Electronic Circulars contain information on unusual
         minor planets, routine data on comets and natural satellites,
         and occasional editorial announcements.  They are published
    on behalf of Division F of the International Astronomical Union by the
          Minor Planet Center, Smithsonian Astrophysical Observatory,
                          Cambridge, MA 02138, U.S.A.
			  
             Prepared using the Tamkin Foundation Computer Network
                              MPC at CFA.HARVARD.EDU
            URL https://www.minorplanetcenter.net/    ISSN 1523-6714
                                    2024 AA3                                    
Observations:
     K24A03A*1C2024 01 10.25099805 49 02.334+18 40 18.34         20.60GVEA123G96
     K24A03A 1C2024 01 10.25661705 49 07.820+18 39 51.48         20.33GVEA123G96
     K24A03A 1C2024 01 10.26222705 49 13.170+18 39 24.73         20.58GVEA123G96
     K24A03A KC2024 01 10.32997105 50 18.280+18 33 57.30         20.30GVEA123V06
     K24A03A KC2024 01 10.33187905 50 20.100+18 33 48.20         20.95GVEA123V06
     K24A03A KC2024 01 11.11085306 02 43.08 +17 34 51.6          21.1 GXEA123858
     K24A03A KC2024 01 11.11780206 02 48.91 +17 34 22.3          20.7 GXEA123858
     K24A03A KC2024 01 11.12487906 02 54.81 +17 33 53.3          20.4 GXEA123858
     K24A03A  C2024 01 11.13531206 02 58.44 +17 35 53.9                WEA123X09
     K24A03A KC2024 01 11.13647106 03 05.094+17 33 09.68         20.51GVEA123V06
     K24A03A KC2024 01 11.13771806 03 06.131+17 33 04.61         20.51GVEA123V06
     K24A03A KC2024 01 11.13896406 03 07.175+17 32 59.50         20.45GVEA123V06
     K24A03A KC2024 01 11.14021206 03 08.161+17 32 54.38         20.88GVEA123V06
     K24A03A  C2024 01 11.14925806 03 09.83 +17 34 52.6                WEA123X09
     K24A03A 1C2024 01 11.27162706 04 54.257+17 23 42.47         20.16GVEA123G96
     K24A03A 1C2024 01 11.27186806 04 54.462+17 23 41.64         20.46GVEA123G96
     K24A03A 1C2024 01 11.27211006 04 54.642+17 23 40.16         20.28GVEA123G96
     K24A03A 1C2024 01 11.27305706 04 55.384+17 23 36.53         20.85GVEA123G96
Observer details:
858 Tebbutt Observatory, Edgewood.  Observer F. B. Zoltowski.  0.51-m f/8.1
    Schmidt-Cassegrain + CCD.
G96 Mt. Lemmon Survey.  Observer J. K. Hogan.  Measurers T. Beuden, V. F.
    Carvajal, D. Fay, J. B. Fazekas, D. C. Fuls, A. R. Gibbs, A. D. Grauer, H.
    Groeller, J. K. Hogan, R. A. Kowalski, S. M. Larson, G. J. Leonard, D.
    Rankin, R. L. Seaman, F. C. Shelly, K. W. Wierzchos.  1.5-m reflector +
    10K CCD.
V06 Catalina Sky Survey-Kuiper.  Observer K. W. Wierzchos.  Measurers T.
    Beuden, V. F. Carvajal, D. Fay, J. B. Fazekas, D. C. Fuls, A. R. Gibbs, A.
    D. Grauer, H. Groeller, J. K. Hogan, R. A. Kowalski, S. M. Larson, G. J.
    Leonard, D. Rankin, R. L. Seaman, F. C. Shelly, K. W. Wierzchos.  1.55-m
    reflector + 1K CCD.
X09 Deep Random Survey, Rio Hurtado.  Observers A. Schnabel, D. Ruhela.
    Measurer S. Deen.  0.43-m reflector + CMOS.
Orbital elements:
2024 AA3                                                 Earth MOID = 0.0117 AU
Epoch 2023 Sept. 13.0 TT = JDT 2460200.5                MPC                     
M 327.48316              (2000.0)            P               Q                  
n   0.40430699     Peri.  133.75266     +0.51323056     -0.85407141             
a   1.8113202      Node   285.18877     +0.76009744     +0.49809466             
e   0.4943766      Incl.    5.02887     +0.39855524     +0.14987906             
P   2.44           H   25.97          G   0.15           U   8                  
Residuals in seconds of arc
240110 G96  0.2-  0.1-    240111 858  0.1+  0.5-    240111 V06  0.3-  0.2+
240110 G96  0.6+  0.0     240111 858  0.3+  0.1-    240111 X09  0.8-  0.5-
240110 G96  0.3-  0.1+    240111 X09  1.8-  0.6+    240111 G96  0.0   0.1-
240110 V06  0.1+  0.1-    240111 V06  0.0   0.0     240111 G96  0.2+  0.1+
240110 V06  0.0   0.1+    240111 V06  0.1+  0.1+    240111 G96  0.0   0.4-
240111 858  0.3-  0.0     240111 V06  0.3+  0.1+    240111 G96  0.2-  0.0
Ephemeris:
2024 AA3                 a,e,i = 1.81, 0.49, 5                   q = 0.9158
Date    TT    R. A. (2000) Decl.     Delta      r    Elong.  Phase     V
2023 12 12    21 01 37.2 +02 02 46   0.1422  0.9238    60.8   111.4    25.8
...
2023 12 27    22 31 29.1 +12 29 07   0.05819 0.9662    71.1   105.6    23.6
...
2024 01 04    02 31 59.9 +25 57 47   0.03491 1.0015   120.6    57.7    20.8
...
2024 01 10    05 44 37.9 +19 01 15   0.05319 1.0326   157.1    21.8    20.7
2024 01 11    06 00 58.3 +17 43 53   0.05815 1.0381   159.6    19.3    20.9
2024 01 12    06 14 33.3 +16 35 20   0.06339 1.0437   161.3    17.5    21.0
...
2024 01 18    07 02 42.0 +12 10 13   0.09850 1.0791   164.6    14.0    21.9
...
2024 01 26    07 30 21.8 +09 43 02   0.1513  1.1299   162.8    14.9    23.0
...
2024 02 10    07 54 06.0 +08 33 00   0.2652  1.2329   155.5    19.4    24.5
A. U. Tomatic                (C) Copyright 2024 MPC           M.P.E.C. 2024-A123
    
    
More information about the Iaude
mailing list